{"data":{"norad_id":63589,"epoch":"2026-09-20T09:12:54.755712Z","epoch_age_seconds":162535,"freshness":"FRESH","line1":"1 63589U 25076W   26263.38396708  .00013881  00000+0  51281-3 0  9994","line2":"2 63589  43.0019 302.3993 0001398 269.0189  91.0503 15.27592621 81608","mean_motion":15.27592621,"eccentricity":0.0001398,"inclination_deg":43.0019,"raan_deg":302.3993,"arg_perigee_deg":269.0189,"mean_anomaly_deg":91.0503,"bstar":0.00051281,"rev_number":8160,"period_min":94.265969879937,"perigee_km":482.0521159525,"apogee_km":483.97049301844,"semimajor_km":6861.1483044855,"source":"CELESTRAK","updated_at":"2026-09-21T09:00:35.048840Z"}}